Eagle Creek, IN

11:46 AM EDT on October 19, 2017 (GMT -0400)
Eagle Creek

Weather History for KEYE - December, 2012

Change the Weather History Date:

Saturday, December 29, 2012

  Actual Average Record
Temperature  
Mean Temperature 27 °F 29 °F  
Max Temperature 31 °F 35 °F 55 °F (2006)
Min Temperature 22 °F 22 °F 12 °F (2000)
Degree Days  
Heating Degree Days 38 36  
Month to date heating degree days 767 958  
Since 1 July heating degree days 1985 1982  
Cooling Degree Days 0 0  
Month to date cooling degree days 0 0  
Year to date cooling degree days 1339 1058  
Moisture  
Dew Point 25 °F    
Average Humidity 87    
Maximum Humidity 100    
Minimum Humidity 74    
Precipitation  
Precipitation 0.03 in 0.12 in 0.43 in (2003)
Month to date precipitation 1.99 2.81  
Year to date precipitation 37.17 40.52  
Sea Level Pressure  
Sea Level Pressure 29.93 in    
Wind  
Wind Speed 11 mph (NW)    
Max Wind Speed 23 mph    
Max Gust Speed 30 mph    
Visibility 3 miles    
Events Snow    
T = Trace of Precipitation, MM = Missing Value Source: NWS Daily Summary

Daily Weather History Graph

Daily Weather History Graph

Search for Another Location

Airport or City:

Trip Planner

Search our weather history database for the weather conditions in past years. The results will help you decide how hot, cold, wet, or windy it might be!

Date:

Astronomy

Dec. 29, 2012 Rise Set
Actual Time 8:06 AM EST 5:29 PM EST
Civil Twilight 7:35 AM EST 5:59 PM EST
Nautical Twilight 7:01 AM EST 6:33 PM EST
Astronomical Twilight 6:28 AM EST 7:06 PM EST
Moon 7:01 PM EST (12/29) 8:39 AM EST (12/29)
Length of Visible Light 10h 23m
Length of Day
9h 22m
Full, 98% of the Moon is Illuminated
Dec 29
Full
Jan 4
Last Quarter
Jan 11
New
Jan 18
First Quarter
Jan 26
Full

Hourly Weather History & Observations

Time (EST) Temp. Windchill Dew Point Humidity Pressure Visibility Wind Dir Wind Speed Gust Speed Precip Events Conditions
12:16 AM 28.4 °F 24.6 °F 28.4 °F 100% 29.83 in 0.8 mi North 3.5 mph - 0.00 in Snow Light Snow
12:26 AM 28.4 °F 23.3 °F 28.4 °F 100% 29.82 in 1.0 mi North 4.6 mph - 0.00 in Snow Light Snow
12:53 AM 28.9 °F 25.2 °F 28.0 °F 96% 29.84 in 1.2 mi North 3.5 mph - 0.00 in Snow Light Snow
1:00 AM 28.4 °F 24.6 °F 28.4 °F 100% 29.81 in 1.5 mi North 3.5 mph - 0.00 in Snow Light Snow
1:53 AM 28.9 °F 25.2 °F 27.0 °F 92% 29.81 in 1.5 mi North 3.5 mph - 0.00 in Snow Light Snow
2:53 AM 28.0 °F 21.7 °F 27.0 °F 96% 29.81 in 1.2 mi North 5.8 mph - 0.00 in Snow Light Snow
3:06 AM 28.4 °F 23.3 °F 26.6 °F 93% 29.79 in 1.2 mi North 4.6 mph - 0.00 in Snow Light Snow
3:18 AM 28.4 °F 23.3 °F 26.6 °F 93% 29.80 in 1.0 mi North 4.6 mph - 0.00 in Snow Light Snow
3:32 AM 28.4 °F 20.4 °F 26.6 °F 93% 29.80 in 1.0 mi NNW 8.1 mph - 0.00 in   Overcast
3:53 AM 28.0 °F 22.8 °F 27.0 °F 96% 29.82 in 1.0 mi NNW 4.6 mph - 0.00 in   Overcast
4:17 AM 28.4 °F 22.2 °F 26.6 °F 93% 29.79 in 1.5 mi NW 5.8 mph - N/A   Overcast
4:53 AM 28.0 °F 20.0 °F 26.1 °F 92% 29.82 in 1.5 mi NNW 8.1 mph - N/A   Overcast
5:13 AM 28.4 °F 20.4 °F 26.6 °F 93% 29.79 in 1.8 mi NNW 8.1 mph - N/A   Overcast
5:45 AM 28.4 °F 19.1 °F 26.6 °F 93% 29.80 in 2.0 mi NNW 10.4 mph - N/A   Overcast
5:53 AM 28.0 °F 19.3 °F 26.1 °F 92% 29.83 in 2.0 mi NNW 9.2 mph - N/A   Overcast
6:20 AM 28.4 °F 20.4 °F 24.8 °F 86% 29.81 in 2.0 mi NNW 8.1 mph - N/A   Overcast
6:29 AM 28.4 °F 19.1 °F 26.6 °F 93% 29.81 in 2.5 mi NW 10.4 mph - N/A   Overcast
6:39 AM 28.4 °F 19.1 °F 26.6 °F 93% 29.82 in 3.0 mi NW 10.4 mph - N/A   Overcast
6:53 AM 28.0 °F 20.0 °F 26.1 °F 92% 29.85 in 4.0 mi NW 8.1 mph - N/A   Overcast
7:53 AM 28.0 °F 18.6 °F 26.1 °F 92% 29.87 in 4.0 mi NW 10.4 mph - N/A   Overcast
8:40 AM 28.4 °F 19.7 °F 26.6 °F 93% 29.86 in 2.5 mi NW 9.2 mph - N/A   Overcast
8:53 AM 28.0 °F 20.0 °F 26.1 °F 92% 29.88 in 2.0 mi NW 8.1 mph - N/A   Overcast
9:11 AM 28.4 °F 20.4 °F 26.6 °F 93% 29.86 in 1.8 mi NW 8.1 mph - N/A   Overcast
9:34 AM 28.4 °F 19.7 °F 26.6 °F 93% 29.88 in 2.0 mi WNW 9.2 mph - N/A   Overcast
9:53 AM 28.9 °F 20.4 °F 27.0 °F 92% 29.92 in 2.5 mi WNW 9.2 mph - N/A   Overcast
10:14 AM 28.4 °F 18.5 °F 26.6 °F 93% 29.90 in 3.0 mi NW 11.5 mph - N/A   Overcast
10:53 AM 28.9 °F 20.4 °F 27.0 °F 92% 29.95 in 3.0 mi NW 9.2 mph - N/A   Overcast
11:53 AM 30.0 °F 22.4 °F 28.0 °F 92% 29.95 in 2.5 mi WNW 8.1 mph - 0.01 in   Overcast
12:06 PM 30.2 °F 20.2 °F 28.4 °F 93% 29.92 in 3.0 mi WNW 12.7 mph 17.3 mph N/A   Overcast
12:53 PM 30.0 °F 19.1 °F 27.0 °F 88% 29.95 in 3.0 mi WNW 15.0 mph - 0.01 in   Overcast
1:10 PM 30.2 °F 18.1 °F 26.6 °F 86% 29.92 in 2.0 mi WNW 18.4 mph 25.3 mph N/A   Overcast
1:36 PM 28.4 °F 15.4 °F 26.6 °F 93% 29.93 in 1.8 mi WNW 19.6 mph 26.5 mph 0.01 in   Overcast
1:53 PM 27.0 °F 13.9 °F 23.0 °F 85% 29.97 in 1.2 mi WNW 18.4 mph 27.6 mph 0.01 in   Overcast
2:09 PM 26.6 °F 13.8 °F 23.0 °F 86% 29.94 in 2.0 mi WNW 17.3 mph 26.5 mph N/A   Overcast
2:28 PM 26.6 °F 13.4 °F 21.2 °F 80% 29.95 in 1.8 mi WNW 18.4 mph - N/A   Haze
2:32 PM 26.6 °F 15.7 °F 23.0 °F 86% 29.95 in 3.0 mi WNW 12.7 mph 25.3 mph N/A   Overcast
2:50 PM 26.6 °F 13.1 °F 23.0 °F 86% 29.96 in 1.8 mi WNW 19.6 mph 26.5 mph 0.00 in Snow Light Snow
2:53 PM 27.0 °F 13.5 °F 23.0 °F 85% 29.99 in 1.5 mi WNW 19.6 mph 26.5 mph 0.00 in Snow Light Snow
3:05 PM 26.6 °F 14.7 °F 23.0 °F 86% 29.97 in 3.0 mi WNW 15.0 mph 24.2 mph 0.00 in Snow Light Snow
3:19 PM 26.6 °F 15.2 °F 23.0 °F 86% 29.97 in 2.5 mi WNW 13.8 mph 24.2 mph 0.00 in Snow Light Snow
3:39 PM 26.6 °F 14.3 °F 21.2 °F 80% 29.99 in 3.0 mi WNW 16.1 mph 25.3 mph 0.00 in Snow Light Snow
3:53 PM 27.0 °F 14.3 °F 21.9 °F 81% 30.02 in 3.0 mi WNW 17.3 mph 24.2 mph 0.00 in Snow Light Snow
4:10 PM 26.6 °F 14.7 °F 21.2 °F 80% 30.00 in 2.5 mi WNW 15.0 mph 25.3 mph 0.00 in Snow Light Snow
4:19 PM 26.6 °F 13.4 °F 21.2 °F 80% 30.01 in 3.0 mi WNW 18.4 mph 26.5 mph 0.00 in Snow Light Snow
4:53 PM 26.1 °F 13.6 °F 21.0 °F 81% 30.06 in 6.0 mi WNW 16.1 mph 25.3 mph 0.00 in   Overcast
6:53 PM 24.1 °F 12.5 °F 19.0 °F 81% 30.12 in 10.0 mi West 12.7 mph - 0.00 in   Overcast
7:53 PM 24.1 °F 12.5 °F 19.0 °F 81% 30.15 in 10.0 mi West 12.7 mph - N/A   Overcast
8:53 PM 24.1 °F 13.7 °F 19.0 °F 81% 30.18 in 10.0 mi WNW 10.4 mph - N/A   Overcast
9:53 PM 24.1 °F 11.0 °F 17.1 °F 75% 30.21 in 10.0 mi WNW 16.1 mph - N/A   Overcast
10:53 PM 23.0 °F 10.6 °F 18.0 °F 81% 30.25 in 9.0 mi WNW 13.8 mph - N/A   Overcast
11:53 PM 21.9 °F 9.2 °F 17.1 °F 82% 30.27 in 9.0 mi West 13.8 mph 21.9 mph N/A   Overcast